Satellite-Ground Cal/Val Site Overpasses Predictions

Prediction of Satellite NPP Overpassing Cal/Val Site: Antarctic Dome C

Ground Cal/Val Site Location: Latitude: -75.10, Longitude: 123.35; Satellite-Ground Site NADIR distance within 100 km.

Table of predicted overpasses for the next 14.0 days since TLE Epoch: 9/3/2022
Interval Starting Time Ending Time Minimum Distance Time Minimum Distance (km)
1 09/03/2022 14:49:32 09/03/2022 14:50:01 09/03/2022 14:49:47 12.12
2 09/05/2022 07:32:23 09/05/2022 07:32:53 09/05/2022 07:32:38 1.84
3 09/08/2022 14:55:52 09/08/2022 14:56:20 09/08/2022 14:56:06 24.66
4 09/09/2022 14:37:10 09/09/2022 14:37:26 09/09/2022 14:37:18 82.45
5 09/10/2022 07:38:43 09/10/2022 07:39:10 09/10/2022 07:38:56 37.90
6 09/11/2022 07:19:57 09/11/2022 07:20:17 09/11/2022 07:20:07 71.93
7 09/13/2022 15:02:14 09/13/2022 15:02:36 09/13/2022 15:02:25 61.93
8 09/14/2022 14:43:22 09/14/2022 14:43:48 09/14/2022 14:43:35 47.36
9 09/15/2022 07:45:05 09/15/2022 07:45:24 09/15/2022 07:45:15 73.24
